Location: *
(49.8044°N, 4.0558°E)
Time: 23:06:30
(UTC+00:00)

SPOT 5 - Pass Details

Date: 09 April 2020
Orbit: 624 x 814 km, 98.3° (Epoch: 27 May)

Event Time Altitude Azimuth Distance (km) Brightness Sun altitude
Exits shadow 20:31:36 30° 85° (E) 1,120 3.5 -18.6°
Maximum altitude 20:32:18 32° 65° (ENE) 1,077 3.5 -18.6°
Drops below altitude 10° 20:36:10 10° 3° (N) 2,013 5.7 -19.1°
Sets 20:38:32 0° 353° (N) 2,934 6.8 -19.4°
